EW1653 Weather Reports


Display with metric or nautical units.
time (UTC)temp
F
wind
direction
speed
MPH
gust
MPH
rain 1hr
in
rain 24hr
in
rain mn
in
humidity
%
barometer
mb
20210917141520 74 96 7.0 13.0 0.00 0.01 0.01 93 1020.7
20210917141015 74 49 6.0 11.0 0.00 0.01 0.01 93 1020.7
20210917140509 75 58 5.0 12.0 0.00 0.01 0.01 93 1020.7
20210917140033 74 41 6.0 12.0 0.00 0.01 0.01 93 1020.6
20210917135520 74 56 6.0 13.0 0.00 0.01 0.01 93 1020.6
20210917135020 74 17 7.0 13.0 0.00 0.01 0.01 93 1020.5
20210917134519 74 51 6.0 13.0 0.00 0.01 0.01 94 1020.5
20210917134016 74 8 7.0 13.0 0.00 0.01 0.01 94 1020.5
20210917133502 74 53 6.0 13.0 0.00 0.01 0.01 94 1020.5
20210917133006 74 49 7.0 13.0 0.00 0.01 0.01 94 1020.6
20210917132601 74 49 8.0 13.0 0.00 0.01 0.01 94 1020.5
20210917131617 74 46 7.0 13.0 0.00 0.01 0.01 94 1020.5
20210917131059 74 41 5.0 12.0 0.00 0.01 0.01 94 1020.4
20210917130607 74 44 5.0 12.0 0.00 0.01 0.01 94 1020.4
20210917130156 74 70 5.0 10.0 0.00 0.01 0.01 94 1020.4
20210917125559 74 51 3.0 10.0 0.00 0.01 0.01 94 1020.4
20210917125058 74 60 5.0 11.0 0.00 0.01 0.01 94 1020.5
20210917124807 74 53 5.0 11.0 0.00 0.01 0.01 94 1020.5
20210917124101 73 50 6.0 12.0 0.00 0.01 0.01 94 1020.5
20210917123628 73 31 6.0 12.0 0.00 0.01 0.01 94 1020.5
20210917123229 73 27 4.0 13.0 0.00 0.01 0.01 95 1020.4
20210917122607 73 37 7.0 14.0 0.00 0.01 0.01 95 1020.3
20210917122106 73 28 7.0 14.0 0.00 0.01 0.01 95 1020.4
20210917121634 73 51 5.0 10.0 0.00 0.01 0.01 95 1020.4
20210917121055 73 53 6.0 12.0 0.00 0.01 0.01 95 1020.4
20210917120555 73 57 6.0 13.0 0.00 0.01 0.01 95 1020.3
20210917120131 73 57 6.0 13.0 0.00 0.01 0.01 96 1020.3
20210917115557 73 31 5.0 11.0 0.00 0.01 0.01 96 1020.2
20210917115109 73 38 6.0 11.0 0.00 0.01 0.01 96 1020.3
20210917114600 73 32 6.0 10.0 0.00 0.01 0.01 96 1020.3
20210917114052 73 19 2.0 8.0 0.00 0.01 0.01 96 1020.2
20210917113551 73 44 5.0 8.0 0.00 0.01 0.01 96 1020.2
20210917113122 73 49 4.0 11.0 0.00 0.01 0.01 96 1020.1
20210917112607 73 74 5.0 11.0 0.00 0.01 0.01 96 1020.0
20210917112058 73 63 5.0 11.0 0.00 0.01 0.01 96 1019.9
20210917111746 73 27 5.0 11.0 0.00 0.01 0.01 96 1019.9
20210917111051 73 41 4.0 10.0 0.00 0.01 0.01 96 1019.8
20210917110551 73 41 5.0 11.0 0.00 0.01 0.01 96 1019.7
20210917110220 73 38 4.0 11.0 0.00 0.01 0.01 96 1019.7
20210917105618 73 49 4.0 9.0 0.00 0.01 0.01 96 1019.7
20210917105100 72 47 5.0 9.0 0.00 0.01 0.01 96 1019.7
20210917104631 72 62 4.0 13.0 0.00 0.01 0.01 96 1019.7
20210917104050 72 62 5.0 13.0 0.00 0.01 0.01 96 1019.5
20210917103549 72 89 3.0 11.0 0.00 0.01 0.01 96 1019.4
20210917103110 72 69 5.0 11.0 0.00 0.01 0.01 96 1019.4
20210917102549 72 360 4.0 10.0 0.00 0.01 0.01 96 1019.4
20210917102120 72 23 4.0 10.0 0.00 0.01 0.01 96 1019.4
20210917101626 72 53 6.0 10.0 0.01 0.01 0.01 96 1019.4
20210917101048 72 56 4.0 14.0 0.01 0.01 0.01 96 1019.5
20210917100547 72 45 5.0 14.0 0.01 0.01 0.01 96 1019.4
20210917100053 72 34 7.0 13.0 0.01 0.01 0.01 96 1019.3
20210917095650 72 47 5.0 10.0 0.01 0.01 0.01 96 1019.3
20210917095050 72 46 5.0 10.0 0.01 0.01 0.01 95 1019.3
20210917094616 72 47 6.0 10.0 0.01 0.01 0.01 95 1019.3
20210917094045 72 35 4.0 10.0 0.01 0.01 0.01 95 1019.2
20210917093545 72 46 5.0 10.0 0.01 0.01 0.01 95 1019.3
20210917093127 72 47 5.0 11.0 0.01 0.01 0.01 95 1019.3
20210917092623 73 40 5.0 10.0 0.01 0.01 0.01 94 1019.3
20210917092045 73 35 5.0 10.0 0.01 0.01 0.01 94 1019.3
20210917091656 73 30 6.0 10.0 0.00 0.00 0.00 94 1019.3
20210917091046 73 42 5.0 11.0 0.00 0.00 0.00 94 1019.2
20210917090544 73 35 5.0 11.0 0.00 0.00 0.00 94 1019.2
20210917090048 73 36 5.0 12.0 0.00 0.00 0.00 94 1019.1
20210917085542 73 44 5.0 14.0 0.00 0.00 0.00 94 1019.1
20210917085041 73 45 6.0 13.0 0.00 0.00 0.00 94 1019.1
20210917084619 73 51 4.0 10.0 0.00 0.00 0.00 94 1019.2
20210917084041 73 59 5.0 12.0 0.00 0.00 0.00 94 1019.2
20210917083540 73 51 7.0 12.0 0.00 0.00 0.00 94 1019.2
20210917083107 73 44 4.0 9.0 0.00 0.00 0.00 94 1019.2
20210917082551 73 49 6.0 13.0 0.00 0.00 0.00 94 1019.2
20210917082037 73 77 6.0 14.0 0.00 0.00 0.00 94 1019.2
20210917081612 73 65 6.0 14.0 0.00 0.00 0.00 94 1019.2
20210917081044 73 48 6.0 11.0 0.00 0.00 0.00 94 1019.2
20210917080536 73 358 5.0 11.0 0.00 0.00 0.00 94 1019.2
20210917080038 73 50 6.0 11.0 0.00 0.00 0.00 94 1019.2
20210917075538 73 39 3.0 10.0 0.00 0.00 0.00 94 1019.2
20210917075041 73 40 5.0 10.0 0.00 0.00 0.00 94 1019.2
20210917074610 73 51 5.0 13.0 0.00 0.00 0.00 94 1019.2
20210917074041 73 25 6.0 12.0 0.00 0.00 0.00 94 1019.2
20210917073533 73 46 5.0 12.0 0.00 0.00 0.00 94 1019.2
20210917073042 73 49 6.0 12.0 0.00 0.00 0.00 94 1019.2
20210917072535 73 60 6.0 14.0 0.00 0.00 0.00 94 1019.3
20210917072059 73 60 6.0 14.0 0.00 0.00 0.00 94 1019.3
20210917071548 73 62 5.0 13.0 0.00 0.00 0.00 94 1019.3
20210917071036 73 82 4.0 11.0 0.00 0.00 0.00 94 1019.3
20210917070532 73 61 5.0 11.0 0.00 0.00 0.00 94 1019.3
20210917070045 73 82 5.0 11.0 0.00 0.00 0.00 93 1019.3
20210917065531 73 45 5.0 11.0 0.00 0.00 0.00 93 1019.3
20210917065034 73 72 5.0 9.0 0.00 0.00 0.00 94 1019.2
20210917064604 73 54 4.0 10.0 0.00 0.00 0.00 94 1019.3
20210917064034 73 57 3.0 7.0 0.00 0.00 0.00 94 1019.3
20210917063542 73 72 4.0 7.0 0.00 0.00 0.00 94 1019.4
20210917063057 73 77 3.0 9.0 0.00 0.00 0.00 94 1019.4
20210917062527 73 39 4.0 8.0 0.00 0.00 0.00 94 1019.5
20210917062026 73 46 4.0 8.0 0.00 0.00 0.00 94 1019.5
20210917061604 73 64 3.0 6.0 0.00 0.00 0.00 94 1019.5
20210917061048 73 64 3.0 7.0 0.00 0.00 0.00 94 1019.5
20210917060526 73 82 3.0 6.0 0.00 0.00 0.00 94 1019.5
20210917060037 73 124 1.0 7.0 0.00 0.00 0.00 94 1019.6
20210917055525 73 71 3.0 7.0 0.00 0.00 0.00 94 1019.6
20210917055025 73 61 4.0 10.0 0.00 0.00 0.00 94 1019.6
20210917054529 73 59 5.0 10.0 0.00 0.00 0.00 94 1019.6
20210917054024 73 79 2.0 12.0 0.00 0.00 0.00 94 1019.7
20210917053523 73 57 5.0 12.0 0.00 0.00 0.00 94 1019.8
20210917053026 73 69 4.0 9.0 0.00 0.00 0.00 94 1019.8
20210917052526 73 60 4.0 11.0 0.00 0.00 0.00 94 1019.8
20210917052025 73 62 5.0 11.0 0.00 0.00 0.00 94 1019.9
20210917051537 73 51 5.0 9.0 0.00 0.00 0.00 93 1019.9
20210917051021 73 77 2.0 9.0 0.00 0.00 0.00 93 1019.9
20210917050527 73 76 3.0 9.0 0.00 0.00 0.00 93 1019.9
20210917050117 73 78 1.0 8.0 0.00 0.00 0.00 93 1020.0
20210917045524 73 79 3.0 8.0 0.00 0.00 0.00 93 1020.0
20210917045037 73 74 3.0 8.0 0.00 0.00 0.00 93 1020.0
20210917044518 73 80 2.0 8.0 0.00 0.00 0.00 93 1020.0
20210917044018 73 65 4.0 8.0 0.00 0.00 0.00 94 1020.0
20210917043518 73 69 4.0 11.0 0.00 0.00 0.00 93 1020.1
20210917043038 73 39 4.0 8.0 0.00 0.00 0.00 94 1020.1
20210917042526 73 89 3.0 9.0 0.00 0.00 0.00 94 1020.0
20210917042017 73 86 3.0 9.0 0.00 0.00 0.00 94 1020.0
20210917041600 73 82 3.0 8.0 0.00 0.00 0.00 94 1020.0
20210917041021 73 66 3.0 8.0 0.00 0.00 0.00 94 1020.0
20210917040516 73 61 5.0 8.0 0.00 0.00 0.00 94 1019.9
20210917040017 73 56 3.0 7.0 0.00 0.00 0.00 94 1020.0
20210917035515 73 49 1.0 5.0 0.00 0.00 0.00 94 1020.1
20210917035015 73 75 2.0 5.0 0.00 0.00 0.00 94 1020.1
20210917034520 74 70 2.0 6.0 0.00 0.00 0.00 93 1020.0
20210917034016 74 81 2.0 6.0 0.00 0.00 0.00 93 1020.1
20210917033515 74 79 3.0 7.0 0.00 0.00 0.00 93 1020.1
20210917033044 74 68 3.0 7.0 0.00 0.00 0.00 93 1020.1
20210917032514 74 82 2.0 7.0 0.00 0.00 0.00 93 1020.1
20210917032015 74 80 2.0 7.0 0.00 0.00 0.00 93 1020.1
20210917031518 74 66 3.0 8.0 0.00 0.00 0.00 93 1020.1
20210917031018 74 76 4.0 10.0 0.00 0.00 0.00 93 1020.1
20210917030513 74 71 3.0 10.0 0.00 0.00 0.00 94 1020.2
20210917030026 74 77 3.0 9.0 0.00 0.00 0.00 94 1020.1
20210917025514 74 72 4.0 8.0 0.00 0.00 0.00 94 1020.2
20210917025014 74 68 4.0 7.0 0.00 0.00 0.00 94 1020.2
20210917024545 74 70 2.0 5.0 0.00 0.00 0.00 94 1020.3
20210917024018 74 83 1.0 5.0 0.00 0.00 0.00 94 1020.4
20210917023513 74 65 0.0 0.0 0.00 0.00 0.00 94 1020.4
20210917022513 74 98 1.0 5.0 0.00 0.00 0.00 94 1020.4
20210917022031 74 84 2.0 5.0 0.00 0.00 0.00 94 1020.4
20210917021532 74 86 1.0 5.0 0.00 0.00 0.00 93 1020.4
20210917021015 74 74 1.0 5.0 0.00 0.00 0.00 93 1020.4
20210917020520 74 77 2.0 6.0 0.00 0.00 0.00 93 1020.5
20210917020021 74 82 3.0 6.0 0.00 0.00 0.00 94 1020.5
20210917015542 74 84 0.0 6.0 0.00 0.00 0.00 94 1020.5
20210917015021 74 89 2.0 6.0 0.00 0.00 0.00 94 1020.4
20210917014540 74 72 2.0 6.0 0.00 0.00 0.00 94 1020.4
20210917014015 74 77 2.0 7.0 0.00 0.00 0.00 94 1020.5
20210917013514 74 70 2.0 5.0 0.00 0.00 0.00 93 1020.6
20210917013029 74 92 2.0 5.0 0.00 0.00 0.00 93 1020.6
20210917012514 74 76 3.0 6.0 0.00 0.00 0.00 93 1020.6
20210917012010 74 72 3.0 6.0 0.00 0.00 0.00 93 1020.5
20210917011520 74 80 2.0 4.0 0.00 0.00 0.00 93 1020.5
20210917011016 74 89 1.0 4.0 0.00 0.00 0.00 93 1020.4
20210917010513 74 91 0.0 3.0 0.00 0.00 0.00 93 1020.4
20210917010008 74 91 0.0 4.0 0.00 0.00 0.00 93 1020.4
20210917005510 74 89 0.0 4.0 0.00 0.00 0.00 93 1020.3
20210917005011 74 87 0.0 4.0 0.00 0.00 0.00 93 1020.2
20210917004507 74 86 1.0 6.0 0.00 0.00 0.00 93 1020.1
20210917004019 74 78 1.0 5.0 0.00 0.00 0.00 93 1020.1
20210917003509 74 84 1.0 5.0 0.00 0.00 0.00 93 1020.1
20210917003008 74 68 1.0 5.0 0.00 0.00 0.00 93 1020.1
20210917002508 74 93 1.0 4.0 0.00 0.00 0.00 93 1020.0
20210917002006 74 75 1.0 4.0 0.00 0.00 0.00 93 1020.0
20210917001532 74 88 0.0 4.0 0.00 0.00 0.00 93 1020.0
20210917001006 74 82 1.0 4.0 0.00 0.00 0.00 93 1020.0
20210917000506 74 78 2.0 5.0 0.00 0.00 0.00 93 1020.0
20210917000018 74 84 3.0 5.0 0.00 0.00 0.00 92 1019.9
20210916235508 74 89 0.0 4.0 0.00 0.00 0.00 92 1020.0
20210916235013 74 104 0.0 5.0 0.00 0.00 0.00 92 1019.9
20210916234506 74 86 1.0 5.0 0.00 0.00 0.00 92 1019.9
20210916234005 75 99 1.0 3.0 0.00 0.00 0.00 92 1019.8
20210916233505 75 82 0.0 6.0 0.00 0.00 0.00 91 1019.8
20210916233011 75 82 1.0 5.0 0.00 0.00 0.00 91 1019.7
20210916232506 75 59 2.0 6.0 0.00 0.00 0.00 91 1019.7
20210916232005 75 40 2.0 6.0 0.00 0.00 0.00 91 1019.7
20210916231537 75 66 3.0 6.0 0.00 0.00 0.00 91 1019.8
20210916231012 75 106 2.0 7.0 0.00 0.00 0.00 91 1019.9
20210916230505 75 63 2.0 6.0 0.00 0.00 0.00 91 1019.9
20210916230010 75 107 2.0 6.0 0.00 0.00 0.00 91 1019.8
20210916225508 75 68 2.0 10.0 0.00 0.00 0.00 90 1019.9
20210916225011 75 67 4.0 11.0 0.00 0.00 0.00 90 1019.9
20210916224534 76 75 4.0 11.0 0.00 0.00 0.00 90 1019.9
20210916224006 76 78 2.0 7.0 0.00 0.00 0.00 90 1019.9
20210916223508 76 81 2.0 8.0 0.00 0.00 0.00 90 1019.9
20210916223006 76 86 3.0 8.0 0.00 0.00 0.00 90 1019.9
20210916222508 76 76 2.0 7.0 0.00 0.00 0.00 89 1019.8
20210916222015 76 41 2.0 7.0 0.00 0.00 0.00 89 1019.8
20210916221506 76 81 1.0 9.0 0.00 0.00 0.00 89 1019.8
20210916221005 76 87 4.0 9.0 0.00 0.00 0.00 89 1019.7
20210916220510 76 80 2.0 8.0 0.00 0.00 0.00 89 1019.7
20210916220008 76 65 3.0 8.0 0.00 0.00 0.00 88 1019.6
20210916215503 76 99 4.0 9.0 0.00 0.00 0.00 88 1019.5
20210916215005 77 86 3.0 9.0 0.00 0.00 0.00 87 1019.5
20210916214504 77 57 4.0 7.0 0.00 0.00 0.00 87 1019.5
20210916214014 77 87 1.0 7.0 0.00 0.00 0.00 87 1019.5
20210916213506 77 81 2.0 7.0 0.00 0.00 0.00 86 1019.4
20210916213004 77 109 2.0 7.0 0.00 0.00 0.00 86 1019.4
20210916212502 78 117 3.0 7.0 0.00 0.00 0.00 85 1019.6
20210916212005 78 91 3.0 7.0 0.00 0.00 0.00 85 1019.6
20210916211505 78 117 3.0 7.0 0.00 0.00 0.00 84 1019.5
20210916211003 78 84 2.0 5.0 0.00 0.00 0.00 83 1019.5
20210916210506 79 72 2.0 5.0 0.00 0.00 0.00 83 1019.4
20210916210008 79 98 2.0 6.0 0.00 0.00 0.00 83 1019.5
20210916205503 79 97 3.0 6.0 0.00 0.00 0.00 82 1019.4
20210916205005 79 77 2.0 9.0 0.00 0.00 0.00 82 1019.4
20210916204501 79 54 4.0 9.0 0.00 0.00 0.00 81 1019.4
20210916204000 79 113 2.0 6.0 0.00 0.00 0.00 83 1019.3
20210916203501 79 123 2.0 5.0 0.00 0.00 0.00 84 1019.3
20210916202613 78 117 4.0 9.0 0.00 0.00 0.00 84 1019.3
20210916202501 78 117 4.0 9.0 0.00 0.00 0.00 84 1019.3
20210916201503 78 88 4.0 7.0 0.00 0.00 0.00 84 1019.2
20210916201000 78 119 4.0 8.0 0.00 0.00 0.00 83 1019.3
20210916200503 78 101 3.0 10.0 0.00 0.00 0.00 83 1019.2
20210916200149 78 90 3.0 10.0 0.00 0.00 0.00 83 1019.1
20210916195611 78 103 5.0 11.0 0.00 0.00 0.00 82 1019.1
20210916195107 79 104 7.0 11.0 0.00 0.00 0.00 81 1019.0
20210916194925 79 120 4.0 9.0 0.00 0.00 0.00 81 1018.9
20210916194148 80 119 3.0 9.0 0.00 0.00 0.00 82 1018.8
20210916193617 80 151 4.0 12.0 0.00 0.00 0.00 81 1018.6
20210916193327 80 95 6.0 12.0 0.00 0.00 0.00 79 1018.5
20210916192608 82 117 5.0 10.0 0.00 0.00 0.00 77 1018.5
20210916191710 82 116 4.0 9.0 0.00 0.00 0.00 76 1018.5
20210916191059 83 169 5.0 9.0 0.00 0.00 0.00 77 1018.6
20210916190558 83 119 2.0 9.0 0.00 0.00 0.00 78 1018.7
20210916190139 83 190 5.0 9.0 0.00 0.00 0.00 78 1018.6
20210916185602 82 124 4.0 9.0 0.00 0.00 0.00 78 1018.6
20210916185058 82 148 4.0 11.0 0.00 0.00 0.00 79 1018.7
20210916184718 82 114 6.0 11.0 0.00 0.00 0.00 78 1018.9
20210916184058 82 167 6.0 12.0 0.00 0.00 0.00 79 1019.0
20210916183606 83 116 5.0 14.0 0.00 0.00 0.00 79 1018.9
20210916183139 83 133 5.0 14.0 0.00 0.00 0.00 80 1019.0
20210916182626 83 117 3.0 9.0 0.00 0.00 0.00 79 1019.0
20210916182002 83 120 3.0 9.0 0.00 0.00 0.00 79 1019.2
20210916181503 83 158 5.0 12.0 0.00 0.00 0.00 77 1019.3
20210916181001 83 124 6.0 12.0 0.00 0.00 0.00 80 1019.2
20210916180501 83 117 6.0 11.0 0.00 0.00 0.00 80 1019.4
20210916180128 83 124 4.0 11.0 0.00 0.00 0.00 80 1019.3
20210916175600 82 94 5.0 10.0 0.00 0.00 0.00 78 1019.3
20210916175115 82 90 4.0 8.0 0.00 0.00 0.00 80 1019.4
20210916174100 82 101 4.0 9.0 0.00 0.00 0.00 80 1019.5
20210916173559 82 101 3.0 9.0 0.00 0.00 0.00 80 1019.6
20210916173201 82 110 4.0 9.0 0.00 0.00 0.00 80 1019.5
20210916172609 82 149 4.0 9.0 0.00 0.00 0.00 80 1019.5
20210916172043 83 95 5.0 9.0 0.00 0.00 0.00 79 1019.5
20210916171528 83 131 4.0 9.0 0.00 0.00 0.00 78 1019.7
20210916171018 83 108 5.0 8.0 0.00 0.00 0.00 77 1019.8
20210916170516 83 88 4.0 8.0 0.00 0.00 0.00 80 1019.7
20210916170027 82 162 3.0 6.0 0.00 0.00 0.00 81 1019.7
20210916165513 82 55 3.0 7.0 0.00 0.00 0.00 81 1019.6
20210916165013 82 15 3.0 7.0 0.00 0.00 0.00 83 1019.6
20210916164601 81 51 4.0 7.0 0.00 0.00 0.00 82 1019.6
20210916164021 81 60 4.0 9.0 0.00 0.00 0.00 82 1019.8
20210916163513 81 84 5.0 9.0 0.00 0.00 0.00 83 1019.8
20210916163039 81 73 4.0 8.0 0.00 0.00 0.00 82 1019.7
20210916162534 81 70 4.0 8.0 0.00 0.00 0.00 82 1019.7
20210916161630 81 120 3.0 6.0 0.00 0.00 0.00 82 1019.6
20210916161108 81 75 3.0 6.0 0.00 0.00 0.00 83 1019.6
20210916160637 81 41 3.0 6.0 0.00 0.00 0.00 82 1019.7
20210916160140 81 71 3.0 6.0 0.00 0.00 0.00 82 1019.7
20210916155608 81 70 1.0 5.0 0.00 0.00 0.00 84 1019.6
20210916155052 81 74 2.0 5.0 0.00 0.00 0.00 83 1019.6
20210916154611 81 74 2.0 5.0 0.00 0.00 0.00 83 1019.6
20210916154052 81 68 2.0 4.0 0.00 0.00 0.00 82 1019.6
20210916153641 81 30 2.0 4.0 0.00 0.00 0.00 82 1019.6
20210916153106 81 360 1.0 5.0 0.00 0.00 0.00 82 1019.7
20210916152553 82 46 0.0 6.0 0.00 0.00 0.00 84 1019.7
20210916151655 81 180 1.0 4.0 0.00 0.00 0.00 83 1019.8
20210916151106 81 121 1.0 4.0 0.00 0.00 0.00 83 1019.8
20210916150545 80 147 0.0 3.0 0.00 0.00 0.00 85 1019.8
20210916150100 80 114 0.0 2.0 0.00 0.00 0.00 86 1019.7
20210916145547 80 164 1.0 3.0 0.00 0.00 0.00 86 1019.7
20210916145059 79 160 1.0 3.0 0.00 0.00 0.00 86 1019.7
20210916144554 80 98 1.0 3.0 0.00 0.00 0.00 86 1019.7
20210916144046 79 122 0.0 2.0 0.00 0.00 0.00 87 1019.7
20210916143541 79 96 0.0 2.0 0.00 0.00 0.00 88 1019.6
20210916143150 79 101 0.0 4.0 0.00 0.00 0.00 88 1019.6
20210916142547 78 120 0.0 3.0 0.00 0.00 0.00 90 1019.6